Regional Weather Roundup
Issued by NWS Cleveland, OH

Home | Current Version | Previous Version | Graphics & Text | Print | Product List | Glossary On
Versions: 1 2 3 4 5 6 7 8 9 10 11 12 13 14 15 16 17 18 19 20 21 22 23 24 25 26 27 28 29 30 31 32 33 34 35 36 37 38 39 40 41 42 43 44 45 46 47 48 49 50
000
ASUS41 KCLE 191300
RWRCLE
OHIO REGIONAL WEATHER ROUNDUP
NATIONAL WEATHER SERVICE WILMINGTON, OH
900 AM EDT SAT AUG 19 2017

NOTE: "FAIR" INDICATES FEW OR NO CLOUDS BELOW 12,000 FEET WITH NO
SIGNIFICANT WEATHER AND/OR OBSTRUCTIONS TO VISIBILITY.

OHZ001>008-015>018-024>027-034-035-043-044-191400-
   NORTHWEST OHIO

CITY           SKY/WX    TMP DP  RH WIND       PRES   REMARKS
DEFIANCE       FAIR      65  62  90 SW3       29.92R
FINDLAY        FAIR      68  63  84 S9        29.91R
TOLEDO EXPRESS FAIR      66  64  93 W6        29.91R
TOLEDO EXEC    FAIR      67  65  93 W3        29.91R
LIMA           FAIR      69  65  86 VRB5      29.93S
$$

OHZ009>014-019>023-028>033-038-089-191400-
   NORTHEAST OHIO

CITY           SKY/WX    TMP DP  RH WIND       PRES   REMARKS
CLE-HOPKINS    PTSUNNY   68  65  90 S9        29.92F
CLE-LAKEFRONT  FAIR      68  64  87 S10       29.89F
CUY CO. ARPT   PTSUNNY   68  66  94 SW5       29.90F
LORAIN-ELYRIA  FAIR      65  60  84 S7        29.91S
ASHTABULA      PTSUNNY   69  65  86 SW8       29.93R
AKRON-CANTON   TSTM      67  62  84 SW7       29.97R FOG
WOOSTER        LGT RAIN  64  64 100 CALM      29.94F
MANSFIELD      FAIR      65  64  97 S6        29.95S
YOUNGSTOWN     PTSUNNY   67  63  87 W7        29.95R
$$

OHZ042-051>053-060>062-070>072-077>081-191400-
  SOUTHWEST OHIO

CITY           SKY/WX    TMP DP  RH WIND       PRES   REMARKS
CINC-COVINGTON PTSUNNY   70  68  93 SW8       29.96F
CINC-LUNKEN    FAIR      72  68  87 SW3       29.95F
HAMILTON       FAIR      73  68  84 W3        29.95F
DAYTON         NOT AVBL
WRIGHT-PAT AFB MOSUNNY   73  69  87 SW7       29.93F
DAYTON GENERAL FAIR      71  66  84 SW9       29.96R
WILMINGTON     FAIR      69  67  93 S5        29.96R
$$

OHZ036-037-039>041-045>050-054>059-063>069-073>076-082>088-191400-
  CENTRAL AND SOUTHEAST OHIO

CITY           SKY/WX    TMP DP  RH WIND       PRES   REMARKS
COLUMBUS       FAIR      69  66  90 S5        29.93F
OSU AIRPORT    FAIR      70  68  93 S5        29.93F
BOLTON FIELD   SUNNY     70  66  88 CALM      29.95F
RICKENBACK AFB NOT AVBL
NEWARK         FAIR      69  65  86 CALM      29.94F
MARION         FAIR      67  64  90 S6        29.93F
LANCASTER      FAIR      69  66  90 S5        29.95F
ZANESVILLE     FAIR      68  65  90 S5        29.96R
NEW PHILLY     FAIR      68  67  96 CALM      29.95R
$$




USA.gov is the U.S. government's official web portal to all federal, state and local government web resources and services.